Weather History for Mountain Home, AR

Change the Weather History Date:

Saturday, June 22, 2013

  Actual Average (KHRO) Record (KHRO)
Temperature  
Mean Temperature 81 °F 75 °F  
Max Temperature 90 °F 86 °F 101 °F (1936)
Min Temperature 73 °F 65 °F 43 °F (1902)
Degree Days  
Heating Degree Days 0 0  
Month to date heating degree days 3  
Since 1 June heating degree days 3  
Since 1 July heating degree days 4001  
Cooling Degree Days 16 10  
Month to date cooling degree days 176  
Year to date cooling degree days 315  
Since 1 June cooling degree days 176  
Growing Degree Days 31 (Base 50)    
Moisture  
Dew Point 69 °F    
Average Humidity 68    
Maximum Humidity 90    
Minimum Humidity 49    
Precipitation  
Precipitation 0.00 in 0.15 in 1.97 in (1929)
Month to date precipitation 3.20  
Year to date precipitation 21.20  
Snow  
Snow 0.00 in 0.00 in - ()
Month to date snowfall 0.0  
Since 1 June snowfall 0.0  
Since 1 July snowfall 11.5  
Snow Depth -    
Sea Level Pressure  
Sea Level Pressure 30.03 in    
Wind  
Wind Speed 5 mph (SSE)    
Max Wind Speed 10 mph    
Max Gust Speed 18 mph    
Visibility 8 miles    
Events Rain , Thunderstorm    
T = Trace of Precipitation, MM = Missing Value Source: NWS Daily Summary

Daily Weather History Graph

Daily Weather History Graph

Search for Another Location

Airport:

Trip Planner

Search our weather history database for the weather conditions in past years. The results will help you decide how hot, cold, wet, or windy it might be!

Date:

Astronomy

Jun. 22, 2013 Rise Set
Actual Time 5:52 AM CDT 8:31 PM CDT
Civil Twilight 5:22 AM CDT 9:01 PM CDT
Nautical Twilight 4:44 AM CDT 9:39 PM CDT
Astronomical Twilight 4:01 AM CDT 10:22 PM CDT
Moon 7:48 PM CDT (6/22) 5:04 AM CDT (6/22)
Length of Visible Light 15h 39m
Length of Day
14h 38m
Waxing Gibbous, 99% of the Moon is Illuminated
Jun 22
Waxing Gibbous
Jun 23
Full
Jun 29
Last Quarter
Jul 8
New
Jul 15
First Quarter

Hourly Weather History & Observations

Time (CDT) Temp. Heat Index Dew Point Humidity Pressure Visibility Wind Dir Wind Speed Gust Speed Precip Events Conditions
12:53 AM 77.0 °F - 69.1 °F 76% 30.05 in 8.0 mi Calm Calm - N/A   Clear
1:53 AM 75.0 °F - 69.1 °F 82% 30.02 in 8.0 mi SSW 5.8 mph - N/A   Clear
2:53 AM 73.9 °F - 69.1 °F 85% 30.03 in 8.0 mi Calm Calm - N/A   Clear
3:53 AM 73.9 °F - 69.1 °F 85% 30.02 in 8.0 mi South 3.5 mph - N/A   Clear
4:53 AM 73.0 °F - 70.0 °F 90% 30.01 in 7.0 mi SSE 4.6 mph - N/A   Clear
5:53 AM 73.0 °F - 70.0 °F 90% 30.03 in 7.0 mi SE 3.5 mph - N/A   Clear
6:53 AM 73.9 °F - 70.0 °F 87% 30.05 in 6.0 mi SE 4.6 mph - N/A   Clear
7:53 AM 75.9 °F - 70.0 °F 82% 30.08 in 6.0 mi SE 5.8 mph - N/A   Haze
8:53 AM 79.0 °F - 71.1 °F 77% 30.08 in 7.0 mi SSE 4.6 mph - N/A   Clear
9:53 AM 81.0 °F 84.9 °F 71.1 °F 72% 30.07 in 7.0 mi South 5.8 mph - N/A   Clear
10:53 AM 82.9 °F 88.0 °F 72.0 °F 69% 30.08 in 7.0 mi Variable 4.6 mph - N/A   Scattered Clouds
11:53 AM 84.0 °F 87.8 °F 69.1 °F 61% 30.08 in 8.0 mi SSW 8.1 mph - N/A   Partly Cloudy
12:53 PM 88.0 °F 92.9 °F 70.0 °F 55% 30.06 in 8.0 mi SE 10.4 mph - N/A   Partly Cloudy
1:37 PM 87.8 °F 92.6 °F 69.8 °F 55% 30.08 in 8.0 mi SE 9.2 mph - 0.00 in Thunderstorm Partly Cloudy
1:53 PM 84.0 °F 88.4 °F 70.0 °F 63% 30.06 in 7.0 mi South 8.1 mph - 0.00 in Thunderstorm Thunderstorm
2:01 PM 82.4 °F 85.4 °F 68.0 °F 62% 30.09 in 8.0 mi WSW 6.9 mph - N/A   Partly Cloudy
2:12 PM 82.4 °F 83.9 °F 64.4 °F 54% 30.08 in 8.0 mi West 3.5 mph - N/A Thunderstorm Scattered Clouds
2:27 PM 84.2 °F 87.3 °F 68.0 °F 58% 30.07 in 8.0 mi South 4.6 mph - N/A   Partly Cloudy
2:53 PM 89.1 °F 94.1 °F 70.0 °F 53% 30.02 in 8.0 mi South 10.4 mph - N/A   Clear
3:27 PM 87.8 °F 93.8 °F 71.6 °F 58% 30.04 in 8.0 mi SW 6.9 mph - N/A Thunderstorm Clear
3:42 PM 87.8 °F 92.6 °F 69.8 °F 55% 30.03 in 8.0 mi South 5.8 mph - N/A   Clear
3:53 PM 89.1 °F 95.0 °F 71.1 °F 55% 29.99 in 8.0 mi South 5.8 mph - N/A   Clear
4:53 PM 88.0 °F 92.1 °F 69.1 °F 53% 29.96 in 8.0 mi South 6.9 mph - N/A   Clear
5:14 PM 89.6 °F 93.4 °F 68.0 °F 49% 30.00 in 8.0 mi South 8.1 mph - N/A Thunderstorm Scattered Clouds
5:33 PM 87.8 °F 91.4 °F 68.0 °F 52% 30.00 in 8.0 mi South 5.8 mph - N/A   Partly Cloudy
5:53 PM 86.0 °F 90.1 °F 69.1 °F 57% 29.96 in 8.0 mi SSE 4.6 mph - N/A   Partly Cloudy
6:31 PM 82.4 °F 86.3 °F 69.8 °F 66% 29.99 in 7.0 mi South 9.2 mph - 0.00 in Rain , Thunderstorm Light Rain
6:53 PM 81.0 °F 84.9 °F 71.1 °F 72% 29.97 in 8.0 mi SSE 10.4 mph 18.4 mph 0.00 in Rain , Thunderstorm Light Thunderstorms and Rain
7:53 PM 79.0 °F - 70.0 °F 74% 29.99 in 7.0 mi ESE 3.5 mph - N/A Thunderstorm Clear
8:08 PM 78.8 °F - 69.8 °F 74% 30.02 in 7.0 mi SE 3.5 mph - N/A   Clear
8:53 PM 78.1 °F - 69.1 °F 74% 29.99 in 8.0 mi SE 3.5 mph - N/A   Clear
9:53 PM 77.0 °F - 68.0 °F 74% 29.99 in 8.0 mi SSE 5.8 mph - N/A   Clear
10:53 PM 77.0 °F - 68.0 °F 74% 30.01 in 8.0 mi SE 5.8 mph - N/A   Clear
11:53 PM 75.0 °F - 66.9 °F 76% 30.02 in 8.0 mi East 3.5 mph - N/A   Clear